STARLINK-3681, 51968

Orbit data source: Space-Track

STARLINK-3681, 51968 is a payload satellite owned by SpaceX/Seattle (US) in LEO that was launched on Wed, 09 Mar 2022 UTC via an FALCON 9 launch vehicle from the Air Force Eastern Test Range (AFETR). Payload-class satellites include a variety of spacecraft equipped with specific instruments for various scientific and technological missions. These include communications satellites like Starlink; space stations such as the ISS; scientific satellites like the Hubble; Earth observation satellites from companies like Planet Labs, Umbra, and HawkEye 360; GPS; miniature CubeSats for education and research; and military/defense satellites.

Loading next visibility...
Identifier
51968, 2022-025N
Orbit
LEO
Country
Flag of USUS
Related business
Manufacturer
SpaceX/Seattle
Mission
Operational Commercial Communications
Bus & Motor
STARLINK, Unknown motor
Mass
297 kg wet, ~275 kg dry
Launch date (UTC)
2022-03-09 (4 years ago)
Launch vehicle
FALCON 9
Launch site
Air Force Eastern Test Range (AFETR)
Object type
Payload
Rocket body
Debris
Shape & HBR
Box + 1 Pan, 10.1 m
Radar Cross Section
13.562 m², Large (>1 m²)

Expand to show TLE details & history
Last TLE update: 21 hours ago

TLE from 21 hours ago
0 STARLINK-3681
1 51968U 22025N   25346.48092595 -.00001506  00000-0 -82228-4 0  9992
2 51968  53.0557  58.4239 0001454  93.4100 266.7055 15.06390122207838
Epoch: 2025-12-12T11:32Z
TLE epoch observation values (Epoch: 2025-12-12T11:32:32.002Z)
Latitude
-0.00003°
Longitude
163.8686°
Altitude
548.179 km
Speed
7.589 km/s
True Right ascension
03h 53m 41s
True Declination
0° 00' 00"
Sunlit
Object was in full shadow at epoch
Visualization orbit readout
Latitude
Unknown
Longitude
Unknown
Altitude
Unknown
Speed
Unknown
Apparent Right ascension
Unknown
Apparent Declination
Unknown
Sunlit
N/A
Visualization observer readout
Local Sidereal Time
07:27:32
Azimuth
Unknown
Elevation
Unknown
Doppler factor
Unknown
Orbital elements
Apogee altitude
548.519 km
Perigee altitude
546.505 km
Semi-major axis
6,925.649 km
Eccentricity
0.00015
Inclination
53.0557°
RAAN
58.4239°
Arg. of periapsis
93.41°
True anomaly
266.68887°
Mean anomaly
266.7055°
Eccentric anomaly
266.69718°
Mean motion
3.76576 °/min
Orbital period
95.6 mins
BSTAR
-0.000082228
Loading maneuver chart data...
Computing Atmospheric mass density...
Loading historical data...
Loading historical data...
Loading historical data...
Loading historical data...
Loading historical data...
Loading historical data...
Loading historical data...

Documentation

Showing up to 5 results
|